Orlando International, FL

7:56 PM EST on December 12, 2017 (GMT -0500)
Orlando International

Weather History for KMCO - September, 2013

Change the Weather History Date:

Tuesday, September 10, 2013

  Actual Average Record
Temperature  
Mean Temperature 83 °F 82 °F  
Max Temperature 90 °F 90 °F 97 °F (1923)
Min Temperature 76 °F 73 °F 62 °F (1893)
Degree Days  
Heating Degree Days 0 0  
Month to date heating degree days 0 0  
Since 1 July heating degree days 0 0  
Cooling Degree Days 18 17  
Month to date cooling degree days 175 170  
Year to date cooling degree days 2666 2563  
Growing Degree Days 32 (Base 50)    
Moisture  
Dew Point 71 °F    
Average Humidity 68    
Maximum Humidity 88    
Minimum Humidity 47    
Precipitation  
Precipitation T in 0.20 in 6.61 in (2017)
Month to date precipitation 2.87 2.11  
Year to date precipitation 38.46 38.72  
Sea Level Pressure  
Sea Level Pressure 30.06 in    
Wind  
Wind Speed 10 mph (ENE)    
Max Wind Speed 21 mph    
Max Gust Speed 25 mph    
Visibility 10 miles    
Events      
T = Trace of Precipitation, MM = Missing Value Source: NWS Daily Summary

Daily Weather History Graph

Daily Weather History Graph

Search for Another Location

Airport or City:

Trip Planner

Search our weather history database for the weather conditions in past years. The results will help you decide how hot, cold, wet, or windy it might be!

Date:

Astronomy

Sep. 10, 2013 Rise Set
Actual Time 7:08 AM EDT 7:35 PM EDT
Civil Twilight 6:44 AM EDT 7:59 PM EDT
Nautical Twilight 6:16 AM EDT 8:27 PM EDT
Astronomical Twilight 5:48 AM EDT 8:55 PM EDT
Moon 12:03 PM EDT (9/10) 11:07 PM EDT (9/10)
Length of Visible Light 13h 15m
Length of Day
12h 27m
Waxing Crescent, 28% of the Moon is Illuminated
Sep 10
Waxing Crescent
Sep 12
First Quarter
Sep 19
Full
Sep 26
Last Quarter
Oct 4
New

Hourly Weather History & Observations

Time (EDT) Temp. Heat Index Dew Point Humidity Pressure Visibility Wind Dir Wind Speed Gust Speed Precip Events Conditions
12:53 AM 77.0 °F - 73.0 °F 88% 30.04 in 10.0 mi East 4.6 mph - N/A   Partly Cloudy
1:53 AM 78.1 °F - 73.0 °F 84% 30.04 in 10.0 mi Variable 5.8 mph - N/A   Clear
2:53 AM 78.1 °F - 73.0 °F 84% 30.03 in 10.0 mi NE 9.2 mph - N/A   Clear
3:53 AM 77.0 °F - 73.0 °F 88% 30.02 in 10.0 mi NE 6.9 mph - N/A   Clear
4:53 AM 77.0 °F - 73.0 °F 88% 30.02 in 10.0 mi NE 6.9 mph - N/A   Partly Cloudy
5:53 AM 77.0 °F - 73.0 °F 88% 30.03 in 10.0 mi NE 5.8 mph - N/A   Partly Cloudy
6:53 AM 75.9 °F - 72.0 °F 87% 30.05 in 10.0 mi NE 6.9 mph - N/A   Partly Cloudy
7:53 AM 78.1 °F - 72.0 °F 81% 30.07 in 10.0 mi NE 10.4 mph - N/A   Partly Cloudy
8:53 AM 81.0 °F 85.2 °F 72.0 °F 74% 30.08 in 10.0 mi ENE 9.2 mph - N/A   Partly Cloudy
9:53 AM 84.0 °F 89.0 °F 71.1 °F 65% 30.10 in 10.0 mi East 12.7 mph - N/A   Scattered Clouds
10:53 AM 86.0 °F 90.7 °F 70.0 °F 59% 30.11 in 10.0 mi East 13.8 mph - N/A   Scattered Clouds
11:53 AM 87.1 °F 92.0 °F 70.0 °F 57% 30.10 in 10.0 mi NE 16.1 mph 20.7 mph N/A   Scattered Clouds
12:53 PM 87.8 °F 92.6 °F 69.8 °F 55% 30.09 in 10.0 mi ENE 13.8 mph - N/A   Scattered Clouds
1:53 PM 89.1 °F 92.1 °F 66.9 °F 48% 30.08 in 10.0 mi ENE 15.0 mph - N/A   Scattered Clouds
2:53 PM 89.1 °F 93.7 °F 69.1 °F 52% 30.06 in 10.0 mi East 13.8 mph - N/A   Mostly Cloudy
3:53 PM 89.1 °F 92.9 °F 68.0 °F 50% 30.05 in 10.0 mi NE 12.7 mph - N/A   Mostly Cloudy
4:53 PM 87.1 °F 90.6 °F 68.0 °F 53% 30.05 in 10.0 mi ENE 17.3 mph 24.2 mph N/A   Mostly Cloudy
5:53 PM 87.1 °F 92.8 °F 71.1 °F 59% 30.05 in 10.0 mi ENE 16.1 mph - N/A   Mostly Cloudy
6:53 PM 82.9 °F 88.0 °F 72.0 °F 69% 30.05 in 10.0 mi East 11.5 mph - 0.00 in   Scattered Clouds
7:53 PM 81.0 °F 85.2 °F 72.0 °F 74% 30.07 in 10.0 mi ENE 10.4 mph - N/A   Scattered Clouds
8:53 PM 79.0 °F - 73.9 °F 84% 30.09 in 10.0 mi ENE 9.2 mph - N/A   Partly Cloudy
9:53 PM 78.1 °F - 73.9 °F 87% 30.09 in 10.0 mi East 5.8 mph - N/A   Partly Cloudy
10:53 PM 78.1 °F - 73.9 °F 87% 30.09 in 10.0 mi East 4.6 mph - N/A   Partly Cloudy
11:53 PM 77.0 °F - 72.0 °F 84% 30.09 in 10.0 mi ENE 5.8 mph - N/A   Partly Cloudy